EN

Hourly Weather Trudovoy

Today, 16 April, Friday

Time Temperature Precipitation Wind Pressure Humidity
00:00 +13°C° 0 mm 1 mps 753 mmHg 66%
01:00 +12°C° 0 mm 2 mps 753 mmHg 69%
02:00 +10°C° 0 mm 2 mps 753 mmHg 73%
03:00 +9°C° 0 mm 2 mps 754 mmHg 76%
04:00 +9°C° 0 mm 3 mps 754 mmHg 81%
05:00 +8°C° 0 mm 5 mps 754 mmHg 87%
06:00 +7°C° 0 mm 6 mps 755 mmHg 92%
07:00 +7°C° 0 mm 6 mps 755 mmHg 89%
08:00 +7°C° 0 mm 6 mps 756 mmHg 86%
09:00 +8°C° 0 mm 6 mps 756 mmHg 83%
10:00 +9°C° 0 mm 6 mps 756 mmHg 78%
11:00 +10°C° 0 mm 6 mps 756 mmHg 73%
12:00 +11°C° 0 mm 6 mps 756 mmHg 67%
13:00 +11°C° 0 mm 6 mps 756 mmHg 66%
14:00 +11°C° 0 mm 6 mps 756 mmHg 64%
15:00 +11°C° 0 mm 6 mps 756 mmHg 62%
16:00 +12°C° 0 mm 5 mps 756 mmHg 64%
17:00 +10°C° 0 mm 5 mps 757 mmHg 65%
18:00 +11°C° 0 mm 4 mps 757 mmHg 67%
19:00 +10°C° 0 mm 4 mps 757 mmHg 70%
20:00 +8°C° 0 mm 4 mps 757 mmHg 73%
21:00 +8°C° 0 mm 4 mps 757 mmHg 77%
22:00 +7°C° 0 mm 4 mps 757 mmHg 77%
23:00 +6°C° 0 mm 4 mps 757 mmHg 77%

Tomorrow, 17 April, Saturday

Time Temperature Precipitation Wind Pressure Humidity
00:00 +6°C° 0 mm 4 mps 757 mmHg 78%
01:00 +5°C° 0 mm 4 mps 757 mmHg 77%
02:00 +5°C° 0 mm 4 mps 758 mmHg 77%
03:00 +4°C° 0 mm 4 mps 758 mmHg 76%
04:00 +4°C° 0 mm 4 mps 758 mmHg 75%
05:00 +4°C° 0 mm 4 mps 758 mmHg 73%
06:00 +3°C° 0 mm 4 mps 758 mmHg 72%
07:00 +5°C° 0 mm 4 mps 758 mmHg 65%
08:00 +6°C° 0 mm 5 mps 758 mmHg 59%
09:00 +7°C° 0 mm 5 mps 759 mmHg 52%
10:00 +8°C° 0 mm 5 mps 758 mmHg 48%
11:00 +9°C° 0 mm 5 mps 758 mmHg 43%
12:00 +12°C° 0 mm 5 mps 758 mmHg 39%
13:00 +12°C° 0 mm 5 mps 758 mmHg 37%
14:00 +12°C° 0 mm 5 mps 758 mmHg 35%
15:00 +12°C° 0 mm 5 mps 758 mmHg 33%
16:00 +11°C° 0 mm 4 mps 758 mmHg 37%
17:00 +11°C° 0 mm 3 mps 758 mmHg 42%
18:00 +10°C° 0 mm 3 mps 757 mmHg 46%
19:00 +9°C° 0 mm 3 mps 758 mmHg 50%
20:00 +8°C° 0 mm 2 mps 758 mmHg 53%
21:00 +7°C° 0 mm 2 mps 758 mmHg 56%
22:00 +6°C° 0 mm 2 mps 758 mmHg 59%
23:00 +5°C° 0 mm 2 mps 757 mmHg 61%

Day after tomorrow, 18 April, Sunday

Time Temperature Precipitation Wind Pressure Humidity
00:00 +5°C° 0 mm 2 mps 757 mmHg 64%
01:00 +4°C° 0 mm 2 mps 757 mmHg 66%
02:00 +4°C° 0 mm 2 mps 757 mmHg 68%
03:00 +3°C° 0 mm 2 mps 757 mmHg 70%
04:00 +4°C° 0 mm 2 mps 757 mmHg 70%
05:00 +4°C° 0 mm 2 mps 758 mmHg 70%
06:00 +4°C° 0 mm 2 mps 758 mmHg 70%
07:00 +6°C° 0 mm 2 mps 758 mmHg 64%
08:00 +7°C° 0 mm 3 mps 758 mmHg 57%
09:00 +8°C° 0 mm 4 mps 758 mmHg 51%
10:00 +10°C° 0 mm 4 mps 757 mmHg 48%
11:00 +11°C° 0 mm 4 mps 757 mmHg 45%
12:00 +12°C° 0 mm 5 mps 757 mmHg 43%
13:00 +12°C° 0 mm 5 mps 757 mmHg 42%
14:00 +12°C° 0 mm 5 mps 757 mmHg 42%
15:00 +12°C° 0 mm 5 mps 757 mmHg 42%
16:00 +10°C° 0 mm 5 mps 757 mmHg 48%
17:00 +9°C° 0 mm 6 mps 758 mmHg 55%
18:00 +6°C° 0 mm 7 mps 758 mmHg 61%
19:00 +5°C° 0 mm 7 mps 758 mmHg 59%
20:00 +4°C° 0 mm 6 mps 759 mmHg 57%
21:00 +3°C° 0 mm 6 mps 759 mmHg 55%
22:00 +3°C° 0 mm 5 mps 759 mmHg 56%
23:00 +2°C° 0 mm 5 mps 759 mmHg 57%

19 April, Monday

Time Temperature Precipitation Wind Pressure Humidity
00:00 +1°C° 0 mm 5 mps 759 mmHg 57%
01:00 +1°C° 0 mm 5 mps 760 mmHg 59%
02:00 +1°C° 0 mm 6 mps 760 mmHg 61%
03:00 -1°C° 0 mm 6 mps 760 mmHg 62%
04:00 -1°C° 0 mm 6 mps 761 mmHg 60%
05:00 -1°C° 0 mm 7 mps 761 mmHg 57%
06:00 -2°C° 0 mm 7 mps 761 mmHg 55%
07:00 -1°C° 0 mm 7 mps 761 mmHg 53%
08:00 0°C° 0 mm 8 mps 762 mmHg 51%
09:00 +1°C° 0 mm 8 mps 762 mmHg 48%
10:00 +2°C° 0 mm 8 mps 762 mmHg 46%
11:00 +4°C° 0 mm 8 mps 762 mmHg 43%
12:00 +5°C° 0 mm 8 mps 762 mmHg 41%
13:00 +5°C° 0 mm 8 mps 762 mmHg 39%
14:00 +5°C° 0 mm 7 mps 762 mmHg 37%
15:00 +6°C° 0 mm 7 mps 762 mmHg 35%
16:00 +5°C° 0 mm 7 mps 762 mmHg 36%
17:00 +5°C° 0 mm 6 mps 762 mmHg 37%
18:00 +4°C° 0 mm 6 mps 762 mmHg 38%
19:00 +3°C° 0 mm 6 mps 762 mmHg 40%
20:00 +2°C° 0 mm 6 mps 763 mmHg 42%
21:00 +1°C° 0 mm 6 mps 763 mmHg 43%
22:00 +1°C° 0 mm 6 mps 763 mmHg 45%
23:00 -1°C° 0 mm 6 mps 763 mmHg 47%

20 April, Tuesday

Time Temperature Precipitation Wind Pressure Humidity
00:00 0°C° 0 mm 5 mps 763 mmHg 49%
01:00 -1°C° 0 mm 5 mps 763 mmHg 53%
02:00 -1°C° 0 mm 4 mps 763 mmHg 57%
03:00 -2°C° 0 mm 4 mps 764 mmHg 61%
04:00 -1°C° 0 mm 4 mps 764 mmHg 59%
05:00 -1°C° 0 mm 5 mps 764 mmHg 57%
06:00 -1°C° 0 mm 5 mps 764 mmHg 54%
07:00 +1°C° 0 mm 6 mps 764 mmHg 48%
08:00 +2°C° 0 mm 6 mps 764 mmHg 41%
09:00 +3°C° 0 mm 7 mps 764 mmHg 35%
10:00 +4°C° 0 mm 7 mps 764 mmHg 32%
11:00 +6°C° 0 mm 7 mps 764 mmHg 29%
12:00 +8°C° 0 mm 7 mps 764 mmHg 26%
13:00 +8°C° 0 mm 7 mps 763 mmHg 26%
14:00 +9°C° 0 mm 7 mps 763 mmHg 25%
15:00 +9°C° 0 mm 7 mps 763 mmHg 25%
16:00 +8°C° 0 mm 6 mps 763 mmHg 28%
17:00 +8°C° 0 mm 5 mps 763 mmHg 32%
18:00 +7°C° 0 mm 5 mps 762 mmHg 35%
19:00 +6°C° 0 mm 5 mps 762 mmHg 39%
20:00 +5°C° 0 mm 5 mps 762 mmHg 42%
21:00 +4°C° 0 mm 4 mps 762 mmHg 45%
22:00 +4°C° 0 mm 4 mps 762 mmHg 47%
23:00 +3°C° 0 mm 4 mps 763 mmHg 48%

21 April, Wednesday

Time Temperature Precipitation Wind Pressure Humidity
00:00 +3°C° 0 mm 4 mps 763 mmHg 50%
01:00 +1°C° 0 mm 4 mps 763 mmHg 50%
02:00 +1°C° 0 mm 5 mps 762 mmHg 50%
03:00 0°C° 0 mm 5 mps 762 mmHg 50%
04:00 +1°C° 0 mm 5 mps 762 mmHg 49%
05:00 +1°C° 0 mm 5 mps 762 mmHg 48%
06:00 +1°C° 0 mm 6 mps 762 mmHg 48%
07:00 +2°C° 0 mm 6 mps 762 mmHg 42%
08:00 +4°C° 0 mm 7 mps 762 mmHg 37%
09:00 +6°C° 0 mm 8 mps 762 mmHg 32%
10:00 +7°C° 0 mm 8 mps 762 mmHg 30%
11:00 +9°C° 0 mm 8 mps 762 mmHg 27%
12:00 +10°C° 0 mm 8 mps 762 mmHg 25%
13:00 +11°C° 0 mm 7 mps 761 mmHg 25%
14:00 +11°C° 0 mm 7 mps 761 mmHg 25%
15:00 +12°C° 0 mm 7 mps 761 mmHg 25%
16:00 +11°C° 0 mm 6 mps 761 mmHg 28%
17:00 +10°C° 0 mm 6 mps 761 mmHg 32%
18:00 +9°C° 0 mm 5 mps 761 mmHg 35%
19:00 +10°C° 0 mm 4 mps 761 mmHg 38%
20:00 +8°C° 0 mm 4 mps 761 mmHg 40%
21:00 +8°C° 0 mm 3 mps 761 mmHg 43%
22:00 +8°C° 0 mm 3 mps 761 mmHg 47%
23:00 +8°C° 0 mm 3 mps 761 mmHg 50%
Show more

We Need Your Consent

Meteoprog and our Service Providers may store and access personal data such as cookies, device identifiers or other similar technologies on your device and process such data to personalise content and ads, as well as provide social media features and to analyse the traffic.

  • Store and/or access information on your device

    Cookies, device identifiers or other information can be stored or accessed on your device for the purposes indicated above.

  • Personalised ads and content, ad and content measurement, audience insights, and products development

    Ads and content can be personalised based on a profile. More data can be added to better personalise ads and content. Ad and content performance can be measured. Insights about the audience who saw the ads and content can be derived. Such data can be used to develop or improve user’s experience, systems and software.

By clicking ‘I Agree’ you will allow the use of indicated cookies, device identifiers, web beacons or other similar technologies. Your settings can be changed in the browser on your device.

For certain purposes, legitimate interests may be relied on, rather than consent. You can read more about this in our Privacy and Cookie Policy.